This demonstration page uses our WeatherBlox Daily Observations layout. Learn more.

Left ArrowRight Arrow

Hourly Observations for July 5, 2022

Temp ( °F °C ) Dew Point ( °F °C ) Humidity (%) Winds ( mph kmh ) Pressure ( in mb ) Visibility ( mi km ) Precip ( " mm )
12:54 am 00:54 Clear 84 28.9 69 20.6 61 61 S 10 17 29.80 1009 10 16 0.00 0.00
1:54 am 01:54 Clear 82 27.8 69 20.6 65 65 S 10 17 29.80 1009 10 16 0.00 0.00
2:54 am 02:54 Clear 83 28.3 68 20 61 61 S 13 20 29.79 1009 10 16 0.00 0.00
3:54 am 03:54 Clear 82 27.8 68 20 63 63 W 8 13 29.81 1010 10 16 0.00 0.00
4:54 am 04:54 Clear 78 25.6 68 20 71 71 S 10 17 29.81 1010 10 16 0.00 0.00
5:54 am 05:54 Clear 79 26.1 67 19.4 67 67 SSW 10 17 29.82 1010 10 16 0.00 0.00
6:54 am 06:54 Sunny 78 25.6 67 19.4 69 69 S 9 15 29.81 1009 10 16 0.00 0.00
7:54 am 07:54 Sunny 78 25.6 67 19.4 69 69 S 8 13 29.80 1009 10 16 0.00 0.00
8:54 am 08:54 Sunny 81 27.2 68 20 65 65 S 6 9 29.81 1010 10 16 0.00 0.00
9:54 am 09:54 Sunny 83 28.3 68 20 61 61 S 9 15 29.81 1010 10 16 0.00 0.00
10:54 am 10:54 Sunny 85 29.4 69 20.6 59 59 S 8 13 29.81 1009 10 16 0.00 0.00
11:54 am 11:54 Sunny 90 32.2 69 20.6 50 50 SSW 12 19 29.80 1009 10 16 0.00 0.00
12:54 pm 12:54 Sunny 93 33.9 70 21.1 47 47 SSW 12 19 29.79 1009 10 16 0.00 0.00
1:54 pm 13:54 Sunny 95 35 70 21.1 44 44 S 15 24 29.78 1009 10 16 0.00 0.00
2:54 pm 14:54 Sunny 97 36.1 70 21.1 42 42 SW 12 19 29.76 1008 10 16 0.00 0.00
3:54 pm 15:54 Sunny 98 36.7 70 21.1 40 40 SSW 15 24 29.74 1007 10 16 0.00 0.00
4:54 pm 16:54 Sunny 99 37.2 70 21.1 39 39 SSW 16 26 29.74 1007 10 16 0.00 0.00
5:54 pm 17:54 Sunny 98 36.7 74 23.3 46 46 S 14 22 29.75 1008 10 16 0.00 0.00
6:54 pm 18:54 Sunny 94 34.4 73 22.8 51 51 SSW 5 7 29.78 1008 10 16 0.00 0.00
7:54 pm 19:54 Partly Cloudy 78 25.6 67 19.4 69 69 NNE 12 19 29.84 1011 10 16 0.00 0.00
8:54 pm 20:54 Sunny 79 26.1 66 18.9 65 65 NE 17 28 29.83 1010 10 16 0.00 0.00
9:54 pm 21:54 Clear 78 25.6 66 18.9 67 67 ENE 17 28 29.85 1011 10 16 0.00 0.00
10:54 pm 22:54 Clear 78 25.6 69 20.6 74 74 ESE 12 19 29.86 1011 10 16 0.00 0.00
11:54 pm 23:54 Clear 78 25.6 69 20.6 74 74 SE 6 9 29.85 1011 10 16 0.00 0.00

Powered by AerisWeather